Regional Weather Roundup
Issued by NWS

Home | Current Version | Previous Version | Text Only | Print | Product List | Glossary On
Versions: 1 2 3 4 5 6 7 8 9 10 11 12 13 14 15 16 17 18 19 20 21 22 23 24 25 26 27 28
000
ASUS45 KREV 242010
RWRNV
NEVADA REGIONAL WEATHER ROUNDUP
NATIONAL WEATHER SERVICE RENO NV
1200 PM PST FRI FEB 24 2017

NOTE: "FAIR" INDICATES FEW OR NO CLOUDS BELOW 12,000 FEET WITH NO
SIGNIFICANT WEATHER AND/OR OBSTRUCTIONS TO VISIBILITY.

NVZ001-003-004-242100-
WESTERN NEVADA

CITY           SKY/WX    TMP DP  RH WIND       PRES   REMARKS
RENO           PTSUNNY   35  13  40 VRB5      30.14F
CARSON CITY    FAIR      32   9  37 NW5       30.12F
MINDEN         FAIR      32  12  43 NE5       30.12F
PYRAMID LAKE     N/A     34 N/A N/A SW6         N/A
FALLON         PTSUNNY   36  14  40 VRB3      30.15F
LOVELOCK       MOSUNNY   33  16  49 S7        30.16S
HAWTHORNE      SUNNY     36  12  38 NW7       30.12F
$$

NVZ002-CAZ072-073-242100-
NORTHERN AND CENTRAL SIERRA

CITY           SKY/WX    TMP DP  RH WIND       PRES   REMARKS
S. LAKE TAHOE  SUNNY     27  10  49 S12G18    30.06S
TRUCKEE        MOSUNNY   14  12  92 CALM      30.11S
SQUAW VLY 8000   N/A     21  21 100 SW6         N/A
MAMMOTH LAKES  FAIR      24   6  46 CALM      30.05S
BRIDGEPORT     FLURRIES  20   5  52 CALM      30.00F
$$

NVZ030-031-036-242100-
NORTHERN NEVADA

CITY           SKY/WX    TMP DP  RH WIND       PRES   REMARKS
ELKO           PTSUNNY   27   8  44 W7G17     30.09S
WINNEMUCCA     NOT AVBL
WENDOVER       PTSUNNY   36   5  27 W10       30.08F
$$

NVZ035-037-242100-
CENTRAL NEVADA

CITY           SKY/WX    TMP DP  RH WIND       PRES   REMARKS
ELY            CLOUDY    23   7  50 E6        30.05S
EUREKA           N/A     26   4  38 CALM      30.06S
$$

NVZ013-014-242100-
SOUTH CENTRAL NEVADA

CITY           SKY/WX    TMP DP  RH WIND       PRES   REMARKS
TONOPAH        SUNNY     32   4  30 N6        30.08F
$$

NVZ017-020-022-242100-
SOUTHERN NEVADA

CITY           SKY/WX    TMP DP  RH WIND       PRES   REMARKS
LAS VEGAS      MOSUNNY   50   9  19 N3        30.15F
N. LAS VEGAS   SUNNY     48  12  23 E7        30.16F
NELLIS AFB     SUNNY     49  15  26 CALM      30.16F
HENDERSON      SUNNY     50  11  20 W5        30.17F
MERCURY        SUNNY     45   6  20 CALM      30.13F
$$




USA.gov is the U.S. government's official web portal to all federal, state and local government web resources and services.